Temp
45 44 44 43 43 42 41 40 40 39 38 38 37 36 35 35 34 33 33 32 31 31 30 30 30 30 30 29 28 28 28 26 26 26 26 26 26 26 27 26 25 25
44 44 43 43 42 41 41 41 40 39 38 37 37 36 35 34 33 33 32 31 31 30 30 29 29 29 28 28 27 27 27 26 25 28 25 25 26 25 25 25 25 25
43 43 43 42 42 40 40 39 39 38 38 37 35 35 33 34 33 32 31 31 30 29 29 29 28 28 27 27 26 27 26 25 24 25 25 25 25 25 25 25 24 24
43 43 43 42 41 40 39 38 37 36 35 34 34 34 34 33 32 31 30 31 29 28 28 28 27 27 27 26 26 26 25 25 25 24 24 25 25 25 25 24 25 25
42 42 42 41 40 39 38 37 36 35 35 35 33 33 32 31 31 30 30 29 28 28 27 27 27 26 26 26 25 25 24 24 24 24 24 24 24 25 25 25 23 23
41 41 40 40 39 38 37 37 36 35 34 33 33 32 32 31 31 30 29 28 27 27 27 26 26 25 25 25 25 24 24 24 24 23 23 23 23 24 25 25 22 22
40 40 39 38 37 37 37 36 35 35 34 34 32 31 31 30 30 29 28 28 27 27 26 26 25 25 25 25 24 23 23 24 23 23 23 23 23 22 23 23 22 22
39 39 38 37 36 36 36 35 34 34 33 32 32 31 30 30 29 28 28 27 26 26 26 25 25 25 24 24 24 23 23 24 23 23 22 22 22 22 22 23 22 21
37 37 37 35 36 35 35 34 34 33 32 32 31 30 30 30 29 28 27 27 26 26 25 25 25 24 24 24 24 23 22 23 24 23 22 22 21 21 21 21 20 20
36 36 35 35 35 35 35 34 33 32 31 32 31 30 29 28 28 27 27 26 26 25 25 24 24 24 24 24 23 23 22 23 23 23 23 22 22 21 21 20 20 19
36 35 35 34 35 34 34 33 32 31 31 31 30 29 28 27 27 27 26 26 25 25 24 24 24 24 23 23 23 23 22 22 22 23 22 22 22 21 22 20 20 19
35 35 35 34 34 34 33 32 31 31 30 30 29 29 27 27 27 26 26 26 25 25 24 24 23 23 23 23 22 22 22 22 23 22 22 22 22 21 20 20 20 20
35 35 35 35 34 34 32 31 30 30 29 28 28 28 26 26 25 25 25 24 24 23 23 23 23 22 21 21 20 20 21 22 22 22 22 22 21 21 21 21 21 21
36 35 35 35 34 33 31 30 29 28 28 28 27 26 25 25 24 24 23 23 22 22 22 21 21 21 20 20 19 19 19 21 21 21 21 21 21 22 22 22 22 22
35 34 34 33 32 30 29 28 28 27 26 26 25 25 25 24 23 22 21 21 20 21 20 20 20 20 20 20 19 19 19 20 21 21 21 21 21 22 22 22 22 22
34 33 32 31 30 29 28 27 26 25 24 23 23 23 22 21 21 21 20 20 19 18 19 19 19 19 22 25 23 20 20 20 20 20 21 21 20 21 21 23 23 23
32 31 30 29 29 28 26 25 24 23 22 21 20 19 18 18 19 18 18 19 18 18 17 18 19 20 24 26 26 26 22 21 20 20 20 21 21 21 21 22 23 24
31 30 28 27 26 25 24 23 22 21 20 19 17 17 17 17 17 18 17 18 18 18 18 18 18 22 25 27 27 28 26 21 20 20 21 21 22 22 22 23 23 23
29 28 26 25 25 24 23 21 20 20 18 17 16 17 16 15 16 16 15 17 17 17 17 18 18 24 26 27 28 28 28 26 23 22 22 22 22 23 22 23 23 22
28 26 26 25 24 23 21 20 19 19 18 17 16 15 15 15 15 14 15 15 16 17 17 18 19 24 27 27 27 27 28 27 24 23 22 22 23 23 23 23 22 22
27 26 25 24 22 21 20 19 19 18 17 16 15 15 15 14 14 13 14 15 16 17 17 18 18 24 26 26 26 27 27 27 23 23 22 22 23 23 22 22 22 22
26 25 24 22 21 19 19 19 18 17 16 15 15 15 14 14 14 13 14 15 16 16 16 16 18 24 25 25 25 26 26 24 23 22 21 21 21 22 22 22 22 22
27 25 23 21 20 19 18 18 18 16 16 15 14 14 13 13 14 14 15 15 15 15 15 15 16 22 24 24 24 25 25 22 22 20 20 20 20 21 21 22 22 23
26 25 23 21 19 19 19 19 18 17 15 15 14 13 13 14 14 14 15 15 15 14 15 14 14 19 23 23 24 25 24 20 20 19 18 18 18 21 21 22 23 24
25 24 23 21 20 20 19 18 16 15 15 14 15 15 14 14 14 13 13 13 14 14 17 14 13 17 22 22 24 24 24 21 20 18 18 18 18 19 21 22 23 24
25 24 23 21 20 20 19 18 16 14 13 14 15 14 13 14 13 13 12 12 13 13 15 15 13 14 18 23 23 24 25 21 19 18 17 17 18 19 18 20 22 22
MSLP
1011.48 1011.80 1012.04 1012.40 1012.64 1012.92 1013.44 1013.84 1014.24 1014.52 1014.88 1015.24 1015.48 1015.84 1016.32 1016.80 1017.40 1017.84 1018.24 1018.64 1018.92 1019.24 1019.56 1019.76 1020.00 1020.20 1020.44 1020.72 1021.08 1021.44 1021.76 1022.00 1022.20 1022.36 1022.56 1022.84 1023.16 1023.40 1023.60 1023.68 1023.68 1023.60
1010.84 1011.24 1011.68 1012.08 1012.44 1012.72 1013.04 1013.28 1013.72 1014.08 1014.52 1014.96 1015.32 1015.72 1016.24 1016.72 1017.16 1017.48 1017.92 1018.32 1018.68 1018.96 1019.28 1019.48 1019.72 1019.96 1020.24 1020.60 1020.96 1021.32 1021.68 1021.92 1022.16 1022.40 1022.64 1022.88 1023.12 1023.36 1023.48 1023.52 1023.48 1023.44
1010.52 1010.84 1011.08 1011.28 1011.52 1012.08 1012.56 1013.12 1013.56 1013.96 1014.32 1014.72 1015.24 1015.64 1016.04 1016.44 1016.88 1017.36 1017.76 1018.08 1018.44 1018.80 1019.00 1019.24 1019.48 1019.80 1020.12 1020.48 1020.88 1021.24 1021.56 1021.88 1022.16 1022.48 1022.68 1022.84 1023.08 1023.20 1023.28 1023.36 1023.36 1023.28
1009.72 1009.92 1010.24 1010.68 1011.28 1011.84 1012.44 1013.00 1013.48 1013.88 1014.32 1014.76 1014.96 1015.36 1015.76 1016.24 1016.68 1017.20 1017.64 1018.00 1018.32 1018.64 1018.88 1019.12 1019.36 1019.72 1020.04 1020.40 1020.80 1021.20 1021.52 1021.84 1022.16 1022.48 1022.68 1022.80 1022.92 1023.00 1023.08 1023.20 1023.20 1023.16
1008.96 1009.52 1009.96 1010.40 1010.92 1011.60 1012.16 1012.56 1012.96 1013.40 1013.80 1014.16 1014.80 1015.20 1015.60 1016.04 1016.56 1017.08 1017.48 1017.92 1018.24 1018.56 1018.80 1019.04 1019.36 1019.64 1020.00 1020.40 1020.72 1021.16 1021.52 1021.80 1022.12 1022.40 1022.60 1022.68 1022.72 1022.84 1022.88 1023.00 1023.04 1022.92
1009.00 1009.24 1009.60 1010.04 1010.52 1011.04 1011.60 1011.92 1012.40 1012.96 1013.48 1014.00 1014.24 1014.80 1015.16 1015.60 1016.12 1016.60 1017.12 1017.60 1018.04 1018.36 1018.68 1018.96 1019.24 1019.56 1019.88 1020.28 1020.64 1021.04 1021.40 1021.72 1022.00 1022.24 1022.40 1022.52 1022.60 1022.64 1022.72 1022.76 1022.76 1022.72
1008.28 1008.80 1009.20 1009.64 1010.24 1010.68 1011.08 1011.56 1012.08 1012.52 1012.92 1013.32 1014.08 1014.40 1014.80 1015.28 1015.72 1016.24 1016.72 1017.20 1017.72 1018.08 1018.36 1018.68 1018.96 1019.36 1019.72 1020.04 1020.44 1020.84 1021.20 1021.48 1021.80 1022.04 1022.20 1022.32 1022.40 1022.44 1022.52 1022.56 1022.52 1022.56
1008.12 1008.64 1009.16 1009.56 1009.80 1010.28 1010.68 1011.16 1011.64 1012.00 1012.52 1013.20 1013.44 1013.96 1014.28 1014.68 1015.20 1015.80 1016.32 1016.88 1017.36 1017.72 1018.08 1018.36 1018.68 1019.00 1019.32 1019.72 1020.16 1020.60 1020.96 1021.28 1021.56 1021.76 1021.92 1022.04 1022.12 1022.16 1022.24 1022.28 1022.28 1022.44
1008.32 1008.56 1008.96 1009.40 1009.60 1009.84 1010.12 1010.68 1011.24 1011.72 1012.20 1012.56 1013.04 1013.64 1014.04 1014.24 1014.72 1015.32 1015.88 1016.44 1016.88 1017.32 1017.64 1017.96 1018.28 1018.60 1018.96 1019.36 1019.80 1020.20 1020.60 1020.92 1021.16 1021.40 1021.56 1021.72 1021.80 1021.92 1022.08 1022.12 1022.24 1022.36
1008.08 1008.24 1008.84 1009.28 1009.48 1009.52 1009.64 1010.12 1010.80 1011.40 1011.92 1012.20 1012.64 1013.24 1013.60 1014.08 1014.48 1014.92 1015.52 1015.96 1016.36 1016.80 1017.12 1017.48 1017.88 1018.24 1018.60 1019.00 1019.44 1019.84 1020.24 1020.56 1020.88 1021.08 1021.24 1021.40 1021.56 1021.80 1021.92 1022.00 1022.12 1022.28
1007.76 1007.72 1008.04 1008.68 1009.12 1009.52 1009.68 1009.92 1010.32 1010.96 1011.56 1011.88 1012.44 1012.88 1013.28 1013.84 1014.36 1014.72 1015.08 1015.48 1015.76 1016.12 1016.56 1017.00 1017.36 1017.80 1018.28 1018.76 1019.20 1019.60 1019.92 1020.32 1020.60 1020.84 1021.00 1021.16 1021.40 1021.52 1021.60 1021.76 1021.92 1022.12
1007.28 1007.52 1007.40 1007.68 1008.40 1009.12 1009.68 1010.04 1010.28 1010.64 1011.16 1011.72 1012.00 1012.44 1013.04 1013.48 1013.80 1014.28 1014.52 1014.92 1015.32 1015.72 1016.12 1016.64 1017.12 1017.52 1017.96 1018.40 1018.88 1019.28 1019.72 1020.08 1020.36 1020.56 1020.80 1021.00 1021.16 1021.24 1021.40 1021.52 1021.68 1021.84
1006.52 1006.52 1006.52 1006.96 1007.64 1008.36 1009.32 1010.16 1010.52 1010.64 1010.88 1011.28 1011.72 1012.12 1012.64 1013.20 1013.68 1014.04 1014.48 1014.80 1015.24 1015.68 1016.04 1016.44 1016.84 1017.24 1017.68 1018.12 1018.56 1019.00 1019.44 1019.80 1020.08 1020.36 1020.60 1020.80 1020.88 1021.00 1021.16 1021.28 1021.36 1021.44
1005.88 1006.32 1006.60 1006.52 1007.12 1008.08 1008.92 1009.68 1010.36 1010.84 1011.00 1011.32 1011.72 1012.12 1012.52 1012.92 1013.40 1013.88 1014.44 1014.88 1015.20 1015.52 1015.92 1016.28 1016.60 1017.04 1017.48 1017.88 1018.32 1018.72 1019.16 1019.52 1019.84 1020.16 1020.36 1020.52 1020.68 1020.76 1020.84 1020.92 1020.92 1021.04
1005.44 1006.40 1006.96 1007.04 1007.12 1007.84 1008.64 1009.28 1009.96 1010.52 1011.04 1011.36 1011.68 1012.04 1012.52 1012.96 1013.44 1013.92 1014.36 1014.84 1015.20 1015.44 1015.80 1016.12 1016.36 1016.72 1017.12 1017.52 1018.00 1018.48 1018.84 1019.24 1019.52 1019.84 1020.12 1020.32 1020.40 1020.48 1020.52 1020.48 1020.48 1020.60
1005.08 1005.80 1006.64 1007.20 1007.32 1007.56 1008.20 1008.92 1009.64 1010.28 1010.76 1011.24 1011.56 1011.96 1012.48 1013.00 1013.56 1014.04 1014.36 1014.60 1015.00 1015.40 1015.68 1015.92 1016.24 1016.56 1016.80 1017.04 1017.52 1018.00 1018.44 1018.84 1019.24 1019.56 1019.84 1020.04 1020.20 1020.24 1020.12 1020.00 1020.04 1020.16
1004.84 1005.36 1006.16 1006.84 1007.04 1007.44 1008.12 1008.72 1009.36 1009.96 1010.52 1011.00 1011.48 1012.00 1012.48 1013.00 1013.44 1013.84 1014.20 1014.40 1014.60 1014.84 1015.20 1015.52 1015.84 1016.12 1016.28 1016.52 1016.84 1017.28 1017.88 1018.32 1018.76 1019.20 1019.52 1019.72 1019.76 1019.76 1019.76 1019.72 1019.76 1019.76
1004.36 1005.04 1005.80 1006.44 1006.96 1007.24 1007.80 1008.44 1009.16 1009.84 1010.32 1010.80 1011.40 1011.96 1012.40 1012.80 1013.12 1013.44 1013.88 1014.24 1014.52 1014.80 1015.00 1015.24 1015.60 1015.80 1015.88 1016.08 1016.32 1016.56 1017.12 1017.80 1018.28 1018.68 1018.92 1019.08 1019.24 1019.32 1019.36 1019.40 1019.48 1019.48
1004.04 1004.68 1005.36 1006.04 1006.52 1006.96 1007.60 1008.28 1008.84 1009.44 1009.96 1010.52 1010.92 1011.36 1012.08 1012.56 1012.92 1013.48 1013.92 1014.24 1014.44 1014.60 1014.84 1015.08 1015.32 1015.28 1015.36 1015.60 1015.84 1016.16 1016.44 1016.92 1017.52 1017.88 1018.20 1018.48 1018.68 1018.84 1019.00 1019.16 1019.16 1019.12
1003.64 1004.32 1004.92 1005.48 1006.16 1006.76 1007.40 1007.96 1008.52 1008.88 1009.48 1010.12 1010.88 1011.64 1011.96 1012.44 1012.96 1013.32 1013.72 1014.00 1014.12 1014.32 1014.56 1014.76 1015.00 1014.92 1015.00 1015.24 1015.56 1015.92 1016.20 1016.48 1017.00 1017.44 1017.76 1018.00 1018.20 1018.40 1018.60 1018.76 1018.84 1018.88
1003.32 1003.88 1004.48 1005.24 1005.92 1006.56 1007.12 1007.64 1008.12 1008.80 1009.48 1010.00 1010.52 1010.92 1011.48 1011.96 1012.52 1013.12 1013.56 1013.84 1014.08 1014.20 1014.36 1014.60 1014.84 1014.72 1014.80 1015.12 1015.52 1015.84 1016.08 1016.36 1016.88 1017.20 1017.44 1017.64 1017.88 1018.12 1018.44 1018.60 1018.56 1018.52
1002.72 1003.40 1004.16 1005.00 1005.68 1006.32 1006.76 1007.20 1007.72 1008.16 1008.84 1009.72 1010.40 1011.08 1011.64 1012.12 1012.68 1013.04 1013.28 1013.60 1013.84 1014.08 1014.36 1014.56 1014.76 1014.60 1014.72 1015.00 1015.32 1015.52 1015.76 1016.16 1016.56 1016.84 1017.16 1017.52 1017.84 1018.12 1018.28 1018.28 1018.24 1018.16
1002.24 1002.92 1003.80 1004.68 1005.36 1005.96 1006.36 1006.80 1007.40 1008.28 1009.00 1009.64 1010.24 1010.84 1011.36 1011.84 1012.20 1012.56 1012.84 1013.16 1013.36 1013.68 1013.92 1014.28 1014.48 1014.32 1014.48 1014.72 1014.92 1015.12 1015.44 1015.92 1016.24 1016.60 1016.96 1017.36 1017.72 1017.92 1018.00 1017.92 1017.84 1017.72
1001.88 1002.60 1003.44 1004.32 1005.04 1005.36 1005.76 1006.44 1007.24 1008.00 1008.56 1009.08 1009.48 1010.24 1010.92 1011.28 1011.68 1012.20 1012.52 1012.76 1012.96 1013.28 1013.52 1013.84 1014.32 1014.20 1014.24 1014.40 1014.60 1014.80 1015.12 1015.64 1015.92 1016.36 1016.76 1017.12 1017.48 1017.56 1017.56 1017.48 1017.32 1017.12
1001.64 1002.32 1002.96 1003.68 1004.32 1004.84 1005.44 1006.16 1006.88 1007.48 1008.28 1009.08 1009.44 1009.84 1010.24 1010.80 1011.28 1011.72 1012.20 1012.64 1012.92 1013.16 1013.36 1013.72 1014.08 1014.08 1013.96 1014.04 1014.16 1014.40 1014.72 1015.16 1015.60 1016.08 1016.56 1016.92 1017.08 1017.20 1017.12 1016.96 1016.76 1016.60
1001.24 1001.80 1002.40 1003.04 1003.76 1004.64 1005.48 1006.16 1007.00 1007.92 1008.48 1008.96 1009.44 1009.76 1010.12 1010.60 1011.00 1011.44 1011.88 1012.40 1012.76 1013.04 1013.04 1013.32 1013.76 1013.92 1013.72 1013.60 1013.76 1014.00 1014.24 1014.80 1015.32 1015.92 1016.36 1016.60 1016.72 1016.68 1016.68 1016.52 1016.36 1016.36
Wind_Speed
13 12 13 12 12 11 12 13 11 12 12 11 12 11 12 10 10 11 10 9 8 8 8 7 6 6 6 5 5 4 4 3 3 2 2 2 3 4 5 5 4 4
16 14 11 10 9 9 11 12 12 13 12 11 10 9 8 9 10 11 10 10 9 8 7 7 7 6 6 6 5 5 4 3 3 2 3 3 3 3 5 4 4 4
14 14 15 15 14 13 12 10 10 10 10 10 9 9 9 9 11 9 9 9 9 8 8 7 7 6 6 6 5 5 5 3 3 2 3 3 3 4 4 4 4 4
17 17 16 14 12 12 11 10 9 9 8 9 10 10 10 9 10 10 9 9 9 8 7 7 7 6 6 6 6 5 4 3 3 3 3 3 3 4 4 3 4 4
17 15 14 13 11 11 11 12 13 11 12 11 9 10 10 10 10 10 9 8 8 8 7 7 7 7 6 6 5 5 4 4 3 3 4 4 4 4 4 3 4 4
12 13 13 13 12 13 13 14 13 12 12 11 12 10 11 11 11 11 10 10 8 8 8 7 7 6 6 6 6 5 5 5 4 4 4 4 4 3 3 3 3 3
16 14 15 12 12 13 13 12 12 12 12 12 10 12 11 12 12 12 11 10 10 9 9 8 8 7 6 6 6 5 5 5 4 5 5 5 3 4 3 3 3 3
13 11 11 11 14 13 14 13 13 13 12 11 13 11 13 13 13 11 10 11 10 9 9 8 8 8 7 7 7 7 6 5 6 6 5 5 4 4 4 4 3 3
9 11 11 12 14 13 15 14 13 12 12 14 13 12 10 12 12 12 12 11 10 10 10 9 9 9 8 8 8 8 7 6 6 6 6 5 5 5 4 3 3 3
12 11 12 13 14 13 15 14 13 12 12 13 13 11 13 10 11 12 11 12 11 11 11 10 10 9 9 8 8 8 7 7 6 6 5 5 5 4 4 3 3 4
13 13 15 15 15 12 14 14 14 13 12 13 12 12 12 11 10 11 12 12 12 13 12 11 11 10 9 8 7 6 7 6 6 5 4 4 5 5 4 3 4 5
15 14 16 17 16 13 14 13 13 13 13 11 13 14 12 12 13 12 12 13 11 11 11 10 9 9 9 8 7 7 6 6 5 5 5 5 5 5 4 4 5 6
16 18 17 16 16 14 11 11 12 12 13 14 12 13 13 12 11 12 9 10 10 10 10 10 9 9 8 7 7 7 6 6 5 5 5 5 5 5 5 6 6 6
16 14 14 15 13 12 12 12 11 11 12 11 11 12 13 12 13 12 9 8 9 9 9 8 9 8 8 7 7 7 6 5 5 5 5 5 6 6 6 7 7 7
12 10 9 10 12 12 13 13 12 11 10 10 10 10 9 10 9 10 11 10 8 9 9 8 8 8 7 8 8 7 6 6 6 6 6 6 6 6 7 7 7 7
12 11 11 11 12 14 14 13 12 12 11 11 10 10 9 9 9 9 9 10 10 9 8 8 7 6 9 15 11 7 7 6 5 5 6 6 6 7 7 7 7 8
12 12 12 13 13 12 11 13 13 12 11 11 10 9 10 9 10 11 10 10 11 11 11 9 8 7 16 15 15 16 9 6 6 6 5 7 7 7 7 7 8 9
13 13 13 12 12 13 13 13 12 12 12 12 11 11 10 10 11 11 10 10 9 9 8 6 6 11 16 16 15 15 13 8 6 6 6 7 7 7 7 7 8 8
12 14 14 13 14 13 13 13 14 14 13 13 14 12 10 12 11 10 9 9 9 9 8 8 7 14 16 16 15 14 15 12 7 7 6 6 7 7 7 8 8 8
13 14 14 14 13 13 13 14 14 15 13 11 10 10 11 10 10 11 10 10 10 10 9 8 8 13 16 16 14 14 14 12 5 6 6 6 7 8 7 8 9 9
14 15 15 14 14 14 14 14 15 13 13 12 12 13 13 13 13 12 10 10 9 7 7 7 6 14 15 14 13 13 13 11 5 6 6 6 5 5 7 9 9 9
15 15 14 14 14 14 15 16 15 15 16 12 11 9 7 7 7 7 10 10 9 8 8 5 7 15 14 14 14 13 14 7 5 6 5 3 3 7 8 8 8 9
15 16 15 15 15 16 16 16 15 13 12 10 12 11 11 11 11 10 10 10 11 9 8 6 7 13 15 15 14 14 11 5 6 4 3 4 5 7 7 8 8 9
15 15 16 16 15 18 17 14 12 11 12 12 14 13 12 12 9 6 6 7 8 9 8 8 7 11 16 14 14 14 11 6 4 5 4 3 4 7 7 8 9 15
14 15 16 17 17 17 15 16 15 15 12 11 11 12 12 9 7 7 6 4 5 6 13 9 7 10 15 14 15 15 11 6 6 4 4 5 5 6 7 7 8 9
14 16 16 17 17 14 12 13 11 10 12 12 10 11 12 8 7 7 9 8 8 7 9 9 8 6 10 16 15 15 14 7 5 5 5 6 6 6 6 7 7 8
Wind_Direction
194 194 195 193 196 190 183 183 185 182 185 182 182 180 180 174 164 170 170 167 169 164 167 163 156 148 141 134 137 134 143 157 150 154 170 185 222 224 235 239 237 227
197 193 194 192 194 191 189 185 182 182 182 181 181 172 169 159 170 168 168 166 163 164 160 154 150 145 141 139 140 141 145 142 154 146 174 205 224 222 237 239 242 241
192 193 192 193 193 189 185 182 180 182 179 178 167 167 164 166 163 166 163 161 160 158 157 151 145 146 144 144 145 149 154 153 165 179 193 221 220 226 238 235 245 241
197 196 194 194 187 183 177 174 178 174 167 165 174 168 163 164 160 159 158 158 155 157 154 150 151 148 145 146 143 150 154 162 169 174 211 226 224 227 240 228 239 248
195 193 192 190 184 174 172 179 179 176 174 172 158 162 157 157 157 157 157 157 156 156 155 153 149 147 144 144 146 151 158 167 177 182 206 226 231 225 236 222 237 246
196 194 189 185 181 174 179 184 180 173 169 166 170 160 164 158 158 160 158 158 160 157 156 153 152 149 150 148 148 158 163 171 188 186 207 220 230 219 219 220 231 248
195 188 188 180 175 181 180 181 176 174 174 168 153 168 159 160 162 163 162 161 159 162 161 162 156 157 156 152 154 162 169 177 187 190 207 222 216 235 222 227 235 245
190 187 180 178 179 179 181 178 176 176 168 159 169 166 165 163 164 162 161 160 161 163 161 159 158 157 158 154 162 166 176 175 184 192 206 217 212 231 224 219 217 237
185 184 181 182 182 182 182 178 177 171 168 168 168 165 168 166 164 162 163 161 161 162 161 162 161 161 161 159 167 171 175 182 186 193 202 209 214 224 221 214 231 245
191 183 178 185 188 189 184 178 173 172 170 170 167 164 167 168 163 162 161 164 163 164 165 163 163 163 163 166 170 172 176 185 180 179 189 200 218 227 225 219 236 254
193 184 183 186 191 189 189 178 174 169 172 170 165 169 167 160 165 165 165 167 170 170 167 167 166 162 161 164 166 168 174 179 180 183 195 200 214 225 230 224 234 243
191 190 189 188 187 187 187 183 175 171 170 170 170 167 165 170 168 172 174 174 171 168 163 160 157 158 160 162 162 162 165 168 178 190 200 211 214 222 223 230 236 242
194 196 192 185 184 182 174 174 179 176 171 172 172 167 167 170 174 171 174 167 163 156 159 157 156 155 157 159 159 161 165 174 181 193 210 214 219 223 229 229 233 236
199 197 191 187 177 169 170 173 172 175 176 169 164 169 173 173 171 170 162 157 157 155 153 150 151 154 155 156 159 162 168 170 179 197 217 225 227 229 227 231 233 238
190 186 192 184 171 165 168 172 172 172 169 167 170 169 169 169 164 158 156 152 149 150 150 152 156 161 162 163 161 168 168 179 189 201 215 222 231 236 241 242 240 238
181 179 180 179 173 172 172 168 167 168 167 168 170 166 160 156 154 155 157 157 152 152 152 155 162 161 174 176 174 166 168 172 184 199 208 221 235 243 245 246 250 252
176 180 173 180 180 169 166 166 168 167 166 166 163 159 156 155 154 157 163 165 162 160 161 164 169 172 181 185 183 179 171 173 176 188 202 224 230 242 254 258 261 261
180 174 174 178 173 175 170 169 162 163 166 165 159 159 162 159 164 168 163 161 160 160 158 155 160 181 184 186 187 188 180 170 176 186 206 221 233 242 251 260 266 269
174 175 177 176 179 172 167 164 166 167 167 165 172 167 156 165 167 160 164 162 162 157 158 168 169 185 183 184 186 189 195 188 176 191 209 221 234 244 253 258 263 268
175 175 178 179 173 169 167 169 170 175 171 166 155 155 164 165 162 164 164 168 171 169 165 167 168 182 181 183 184 192 196 197 179 197 216 227 234 244 248 259 265 266
177 177 178 174 171 169 170 172 173 168 166 167 166 169 169 170 168 167 173 172 171 166 153 163 169 179 179 180 184 191 194 195 188 198 216 224 221 241 261 261 264 265
176 178 176 171 171 171 173 175 175 173 170 165 161 160 157 151 160 165 169 171 168 163 160 148 165 177 175 179 185 187 187 188 183 201 193 204 252 255 255 259 259 263
178 176 174 173 173 174 178 177 174 170 165 160 160 165 164 169 172 173 172 168 166 167 156 148 163 177 177 180 183 183 185 171 178 166 199 222 233 249 256 259 260 260
178 174 174 174 175 181 180 177 171 166 169 169 169 165 170 173 161 141 154 162 162 163 163 153 161 179 179 179 179 182 178 159 174 176 175 195 228 244 254 256 258 263
175 175 176 176 181 182 176 173 174 174 167 166 172 170 170 155 151 141 140 140 154 155 169 161 154 175 179 177 179 182 182 160 163 150 189 221 227 240 250 257 259 264
177 179 179 179 180 173 173 172 162 158 169 171 172 163 132 146 142 145 148 158 162 166 178 166 166 173 182 178 180 183 180 161 152 172 202 212 236 245 246 242 261 279